Location: D�pe
(52.6057°N, 8.1808°E)
Time: 07:24:30
(UTC+00:00)

Cosmos 968 Rocket - Pass Details

Date: 29 October 2020
Orbit: 741 x 770 km, 74.0° (Epoch: 01 December)

Event Time Altitude Azimuth Distance (km) Brightness Sun altitude
Rises 16:33:49 0° 336° (NNW) 3,246 6.9 -5.4°
Reaches altitude 10° 16:36:18 10° 342° (NNW) 2,312 6.0 -5.7°
Maximum altitude 16:41:21 47° 56° (ENE) 1,006 3.8 -6.5°
Drops below altitude 10° 16:46:21 10° 131° (SE) 2,280 5.6 -7.2°
Sets 16:48:47 0° 137° (SE) 3,196 6.4 -7.6°
